Tracking 26443 objects as of 5-Dec-2022
HD Live streaming from Space Station
objects crossing your sky now

LANDSAT 3

Track LANDSAT 3 now!
10-day predictions
LANDSAT 3 is classified as:


NORAD ID: 10702
Int'l Code: 1978-026A
Perigee: 900.8 km
Apogee: 923.8 km
Inclination: 98.9 °
Period: 103.1 minutes
Semi major axis: 7283 km
RCS: 3.0427 m2 (large)
Launch date: March 5, 1978
Source: United States (US)
Launch site: AIR FORCE WESTERN TEST RANGE (AFWTR)
aabbcc
Your satellite tracking list
Your tracking list is empty




NASA's NSSDC Master Catalog

Two Line Element Set (TLE):
1 10702U 78026A   22338.43437097  .00000272  00000-0  22612-3 0  9995
2 10702  98.8798 303.7217 0015786  94.4717  15.9204 13.96737701281278
Source of the keplerian elements: AFSPC